SB KEPS @ AMSAT $ORB12173.N 2Line Orbital Elements 12173.AMSAT
HR AMSAT ORBITAL ELEMENTS FOR AMATEUR SATELLITES IN NASA FORMAT FROM WA5QGD FORT WORTH,TX June 21, 2012 Send SUBSCRIBE KEPS/UNSUBSCRIBE KEPS to majordomo@amsat.org only BID: ORB12173.N
DECODE 2-LINE ELSETS WITH THE FOLLOWING KEY: 1 AAAAAU 00 0 0 BBBBB.BBBBBBBB .CCCCCCCC 00000-0 00000-0 0 DDDZ 2 AAAAA EEE.EEEE FFF.FFFF GGGGGGG HHH.HHHH III.IIII JJ.JJJJJJJJKKKKKZ KEY: A-CATALOGNUM B-EPOCHTIME C-DECAY D-ELSETNUM E-INCLINATION F-RAAN G-ECCENTRICITY H-ARGPERIGEE I-MNANOM J-MNMOTION K-ORBITNUM Z-CHECKSUM
TO ALL RADIO AMATEURS BT
AO-07 1 07530U 74089B 12172.57696110 -.00000027 00000-0 10000-3 0 4103 2 07530 101.4021 169.6566 0011659 276.8985 083.0761 12.53589837720478 FO-29 1 24278U 96046B 12172.95700475 -.00000060 00000-0 -24559-4 0 08725 2 24278 098.5869 273.1177 0350926 019.6809 341.7489 13.52984227782462 SO-33 1 25509U 98061B 12173.74039106 .00000610 00000-0 10660-3 0 2603 2 25509 031.4364 307.9313 0352688 243.1946 113.2170 14.28780853713306 RS-22 1 27939U 03042A 12173.71303258 .00000436 00000-0 91645-4 0 4685 2 27939 097.8113 014.2966 0012264 249.7009 110.2873 14.64047450466547 VO-52 1 28650U 05017B 12173.50818670 .00001083 00000-0 13867-3 0 1333 2 28650 097.5957 204.2511 0027166 029.4488 330.8260 14.82999502385611 HO-68 1 36122U 09072B 12173.69992155 -.00000044 00000-0 00000 0 0 5749 2 36122 100.3609 232.9560 0007847 097.7725 262.4272 13.16296277120984 UO-11 1 14781U 84021B 12172.97333242 .00000424 00000-0 62358-4 0 09181 2 14781 097.9544 232.4611 0009489 028.3387 331.8339 14.80470343520495 AO-16 1 20439U 90005D 12172.86041431 .00000118 00000-0 59852-4 0 05036 2 20439 098.4311 116.1320 0011144 143.8113 216.3824 14.32060140170524 LO-19 1 20442U 90005G 12172.88285853 .00000106 00000-0 54845-4 0 4202 2 20442 098.3957 119.1463 0012316 136.0809 224.1358 14.32278104170713 AO-27 1 22825U 93061C 12172.74571515 .00000011 00000-0 21496-4 0 01334 2 22825 098.5728 115.5055 0007443 270.1681 089.8628 14.29465565976982 IO-26 1 22826U 93061D 12173.79565221 .00000087 00000-0 50945-4 0 8823 2 22826 098.5693 116.9076 0008026 261.8360 098.1916 14.29740840977268 GO-32 1 25397U 98043D 12173.68592877 .00000168 00000-0 92461-4 0 8053 2 25397 098.3620 152.1731 0000327 323.5311 036.5844 14.23280520724668 NO-44 1 26931U 01043C 12172.81839519 .00000080 00000-0 63284-4 0 00712 2 26931 067.0526 110.9820 0007667 262.4363 097.5862 14.29806543559763 SO-50 1 27607U 02058C 12172.76966482 .00000773 00000-0 13695-3 0 07934 2 27607 064.5591 284.0007 0082731 247.7761 111.4524 14.72408277510499 CO-55 1 27844U 03031E 12172.51268694 -.00000010 00000-0 15673-4 0 04012 2 27844 098.7006 180.8442 0009265 208.8819 151.1842 14.21031565465366 CO-57 1 27848U 03031J 12172.58733806 -.00000158 00000-0 -52701-4 0 3505 2 27848 098.7109 180.2544 0008756 214.3669 145.6989 14.20781516465312 AO-51 1 28375U 04025K 12172.41332020 .00000223 00000-0 79341-4 0 02981 2 28375 098.1479 137.5390 0084726 031.4738 329.1483 14.40956006419230 CP3 1 31129U 07012N 12172.04375616 .00000846 00000-0 20125-3 0 01950 2 31129 097.8816 179.6508 0102067 114.0679 247.1251 14.53088718274399 CO-65 1 32785U 08021C 12173.63020732 .00001086 00000-0 13973-3 0 3404 2 32785 097.8005 234.5772 0015661 050.4757 309.7791 14.83011576224429 PRISM 1 33493U 09002B 12173.71087678 .00002398 00000-0 29467-3 0 8094 2 33493 098.1711 314.3803 0017480 283.1391 076.7877 14.83928293184420 SOHLA-1 1 33496U 09002E 12172.84840839 .00000357 00000-0 67839-4 0 07623 2 33496 098.1044 284.5593 0007297 036.2252 323.9435 14.69981317182788 SO-67 1 35870U 09049F 12173.78316228 .00004268 00000-0 17965-3 0 695 2 35870 097.2323 209.3684 0003156 126.3149 358.6434 15.23884645153316 TISAT-1 1 36799U 10035E 12173.72953181 .00001784 00000-0 23146-3 0 858 2 36799 098.0626 250.0979 0015457 153.4088 206.7916 14.81985112105164 STUDSAT 1 36801U 10035G 12173.85795905 .00004619 00000-0 55529-3 0 4173 2 36801 098.0727 250.9606 0013555 140.1084 220.1127 14.84384620105212 FO-69 1 37227U 0 12172.42492825 .00000281 00000-0 47667-4 0 02123 2 37227 071.9703 304.8102 0018015 311.7487 048.2086 14.77089018036578 FO-70 1 37380U 0 12172.43102687 .00000051 00000-0 15256-4 0 02177 2 37380 071.9742 305.3611 0018524 308.1831 051.7601 14.76839861036468 ALMASAT-1 1 38078U 12006B 12173.80146932 .00012118 00000-0 33486-3 0 3187 2 38078 069.4956 306.8093 0759597 242.9504 109.2063 14.09308119 18202 XATCOBEO 1 38082U 12006F 12173.78017735 .00026895 00000-0 64684-3 0 3368 2 38082 069.4979 304.9169 0738749 241.8886 110.5737 14.16412624 18244 NOAA-10 1 16969U 86073A 12172.66473430 .00000199 00000-0 98358-4 0 09672 2 16969 098.5797 201.6565 0011586 221.7915 138.2362 14.27559368340362 NOAA-11 1 19531U 88089A 12172.75107517 -.00000156 00000-0 -58356-4 0 09634 2 19531 098.7328 257.8354 0010588 210.7776 149.2776 14.14970630225015 NOAA-12 1 21263U 91032A 12172.97805650 .00000051 00000-0 40230-4 0 04659 2 21263 098.7289 194.6253 0013478 186.5061 173.5946 14.25502176097092 MET-3/5 1 21655U 91056A 12173.85898759 -.00000142 00000-0 -40043-3 0 4395 2 21655 082.5561 148.8873 0012296 314.4327 045.5788 13.17041161 2500 MET-2/21 1 22782U 93055A 12172.69960133 .00000025 00000-0 93074-5 0 04500 2 22782 082.5478 029.7283 0023394 139.6945 220.5938 13.83684538949657 OKEAN-4 1 23317U 94066A 12173.88700447 .00000692 00000-0 80355-4 0 9209 2 23317 082.5402 026.8138 0021193 341.3541 018.6897 14.83817592955505 NOAA-14 1 23455U 94089A 12172.93909726 -.00000053 00000-0 -47946-5 0 09442 2 23455 098.8276 256.3912 0008841 314.4843 045.5602 14.13903979901320 NOAA-15 1 25338U 98030A 12172.70776213 .00000327 00000-0 15828-3 0 03046 2 25338 098.6893 159.5817 0011699 097.4717 262.7774 14.25085229733357 RESURS 1 25394U 98043A 12172.98444323 .00000010 00000-0 21820-4 0 01267 2 25394 098.3200 161.0218 0000510 190.4194 169.6976 14.24289790724946 FENGYUN1 1 25730U 99025A 12172.90553191 .00001072 00000-0 63567-3 0 06401 2 25730 098.8466 131.8215 0020119 356.8723 003.2308 14.09615405675131 OKEAN-0 1 25860U 99039A 12173.80813647 .00000450 00000-0 75572-4 0 6606 2 25860 097.9359 136.3563 0000619 100.3765 259.7514 14.74224297695252 NOAA-16 1 26536U 00055A 12172.72013117 .00000100 00000-0 78448-4 0 07889 2 26536 099.0941 214.8979 0011327 076.0588 284.1831 14.12751362605532 NOAA-17 1 27453U 02032A 12172.74552719 .00000351 00000-0 16914-3 0 07442 2 27453 098.3357 199.6029 0012364 142.0905 218.1133 14.24448994519262 NOAA-18 1 28654U 05018A 12172.75135246 -.00000091 00000-0 -25034-4 0 02213 2 28654 099.0454 130.8687 0014760 141.4841 218.7381 14.11662370365063 NOAA-19 1 33591U 09005A 12172.76001829 .00000173 00000-0 11971-3 0 04146 2 33591 098.8641 112.5051 0014631 014.9262 345.2355 14.11350686173512 HUBBLE 1 20580U 90037B 12173.90651463 .00001229 00000-0 77732-4 0 201 2 20580 028.4670 112.6569 0003150 114.8918 245.2198 15.02570551 15441 ISS 1 25544U 98067A 12173.89080567 .00017190 00000-0 25092-3 0 7916 2 25544 051.6378 098.8696 0008487 078.9999 354.8665 15.55737194778743 CO-58 1 28895U 05043F 12173.60430504 .00000564 00000-0 12466-3 0 2068 2 28895 097.9120 039.6830 0018818 135.0330 225.2407 14.60652431354301 FALCON 1 30776U 07006E 12172.63311605 .00003515 00000-0 22883-3 0 3729 2 30776 035.4332 255.7958 0002361 026.9835 333.1006 15.07614674290773 MAST 1 31126U 07012K 12172.52576113 .00000635 00000-0 15129-3 0 04918 2 31126 097.8724 183.4316 0094926 100.0788 261.1125 14.54173988274755 CAPE1 1 31130U 07012P 12172.49564149 .00000521 00000-0 12795-3 0 4971 2 31130 097.8821 179.7825 0102661 113.2007 247.9978 14.52954791274257 COMPASS 1 32787U 08021E 12172.71019240 .00001820 00000-0 22428-3 0 03362 2 32787 097.8008 233.9680 0016284 051.5947 308.6711 14.84040052224332 AAUSAT2 1 32788U 08021F 12172.67906079 .00002811 00000-0 34018-3 0 03261 2 32788 097.8044 234.3225 0016097 053.0694 307.1944 14.84368974224351 DO-64 1 32789U 08021G 12173.59851344 .00003112 00000-0 36254-3 0 3414 2 32789 097.8119 237.2578 0015460 046.9108 313.3385 14.85882694224531 CO-66 1 32791U 08021J 12172.70118379 .00001520 00000-0 19102-3 0 3248 2 32791 097.8009 233.6980 0016767 051.7822 308.4888 14.83450877224262 RS-30 1 32953U 08025A 12173.71670317 .00000010 00000-0 00000 0 0 8903 2 32953 082.5021 292.3204 0017590 299.8570 060.0764 12.43024781185128 TACSAT-3 1 35001U 09028A 12121.72616188 .15204951 73582-5 42606-3 0 00016 2 35001 040.4259 351.8840 0007146 275.2650 085.0693 16.45157000166990 PHARMSAT 1 35002U 09028B 12173.78116828 .00110455 00000-0 40705-3 0 9472 2 35002 040.4581 037.8790 0011622 267.3531 092.6007 15.86959301175056 METEOR-M 1 35865U 09049A 12173.72327914 -.00000006 00000-0 17054-4 0 5228 2 35865 098.6546 227.9645 0003223 051.4921 308.6538 14.21864581143241 RS-38 1 35869U 09049E 12173.67340477 .00000041 00000-0 37956-4 0 5282 2 35869 098.6502 227.9103 0005336 046.2558 313.9058 14.22075476143256 JUGNU 1 37839U 11058B 12173.69331724 .00000620 00000-0 19019-3 0 1717 2 37839 019.9653 330.9477 0018442 273.1431 086.6863 14.12063053 35884 SRMSAT 1 37841U 11058D 12173.61246679 .00000264 00000-0 00000 0 0 1716 2 37841 019.9737 336.3916 0012198 240.0653 119.8593 14.10145172 35812 RAX-2 1 37853U 11061D 12172.83705496 .00002830 00000-0 23213-3 0 02248 2 37853 101.7130 214.6845 0246637 340.5836 018.6083 14.80094899034946 AUBIESAT 1 37854U 11061E 12172.85845483 .00003569 00000-0 28578-3 0 02195 2 37854 101.7142 214.9655 0247227 339.9275 019.2331 14.80485375034932 HRBE 1 37855U 11061F 12172.80486426 .00003173 00000-0 25558-3 0 02151 2 37855 101.7160 214.8462 0248010 340.1091 019.0495 14.80336597034928 RS-39 1 38051U 11062C 12173.77543609 .00009420 00000-0 39089-3 0 4433 2 38051 051.6406 137.9690 0013758 055.2883 015.6426 15.24441930 22675 E-STAR 1 38079U 12006C 12173.75879981 .00022595 00000-0 55438-3 0 3045 2 38079 069.4921 305.2305 0743639 242.1656 110.1917 14.14996744 18239 GOLIAT 1 38085U 12006J 12173.75351498 .00021900 00000-0 53290-3 0 2783 2 38085 069.4908 305.5171 0749041 242.3556 109.9286 14.14019890 18221 HORYU-2 1 38340U 12025D 12173.38720398 .00000929 00000-0 16329-3 0 357 2 38340 098.1766 113.1253 0012358 321.3943 038.6371 14.69995866 5092 /EX